BEIDOU 15 (C14)

Last updated on Jan. 24, 2021, 6:19 a.m. UTC

1 38775U 12050B   21023.62910986 -.00000030  00000-0  00000-0 0  9991
2 38775  55.1446 128.8677 0012801 320.8128 316.7038  1.86232228 56960
UTC
Height (km)
Latitude
Longitude
Inclination
Orbital Period
UTC large
Height (km)
Speed (km/s)
/
Latitude / Longitude
Inclination (degrees)
Orbital Period (minutes)
Azimuth
Elevation
Range (km)
Doppler Factor
iOS Compass Heading
iOS Angle

Next 30 passes for location: Hong Kong

Rise time Rise Azimuth (degrees) Set time Set Azimuth (degrees) Duration Max altitude (degrees)

No matching passes for this satellites